• In Hungary
  • List of Countries
  • For 7 days
  • Water Temperature
  • Satellite Maps
  • Weather Map
  • News
  • Weather Widgets
  • user-avatar
    Login

    Hourly Weather Humpolec

    Today, 17 October, Tuesday

    Time Temperature Precipitation Wind Pressure Humidity
    00:00 +12°C° 0 mm 1 mps 719 mmHg 81%
    01:00 +12°C° 0 mm 1 mps 719 mmHg 80%
    02:00 +12°C° 0 mm 1 mps 719 mmHg 80%
    03:00 +12°C° 0 mm 1 mps 718 mmHg 80%
    04:00 +12°C° 0 mm 1 mps 718 mmHg 79%
    05:00 +12°C° 0 mm 1 mps 718 mmHg 79%
    06:00 +12°C° 0 mm 1 mps 718 mmHg 78%
    07:00 +11°C° 0 mm 1 mps 718 mmHg 75%
    08:00 +13°C° 0 mm 1 mps 718 mmHg 69%
    09:00 +15°C° 0 mm 1 mps 719 mmHg 63%
    10:00 +17°C° 0 mm 2 mps 719 mmHg 58%
    11:00 +18°C° 0 mm 2 mps 718 mmHg 55%
    12:00 +19°C° 0 mm 2 mps 718 mmHg 52%
    13:00 +21°C° 0 mm 2 mps 718 mmHg 49%
    14:00 +20°C° 0 mm 2 mps 718 mmHg 54%
    15:00 +19°C° 0 mm 2 mps 717 mmHg 59%
    16:00 +18°C° 0 mm 2 mps 716 mmHg 63%
    17:00 +16°C° 0 mm 2 mps 716 mmHg 68%
    18:00 +15°C° 0 mm 2 mps 716 mmHg 73%
    19:00 +12°C° 0 mm 3 mps 715 mmHg 78%
    20:00 +12°C° 0 mm 2 mps 715 mmHg 79%
    21:00 +12°C° 0 mm 2 mps 715 mmHg 81%
    22:00 +10°C° 0 mm 2 mps 715 mmHg 82%
    23:00 +10°C° 0 mm 2 mps 714 mmHg 83%

    Tomorrow, 18 October, Wednesday

    Time Temperature Precipitation Wind Pressure Humidity
    00:00 +10°C° 0 mm 2 mps 714 mmHg 85%
    01:00 +9°C° 0 mm 2 mps 714 mmHg 86%
    02:00 +9°C° 0 mm 2 mps 714 mmHg 87%
    03:00 +9°C° 0 mm 2 mps 713 mmHg 89%
    04:00 +9°C° 0 mm 1 mps 713 mmHg 90%
    05:00 +9°C° 0 mm 1 mps 713 mmHg 91%
    06:00 +9°C° 0 mm 1 mps 713 mmHg 91%
    07:00 +9°C° 0 mm 1 mps 712 mmHg 92%
    08:00 +11°C° 0 mm 1 mps 713 mmHg 86%
    09:00 +12°C° 0 mm 2 mps 713 mmHg 80%
    10:00 +14°C° 0 mm 2 mps 713 mmHg 73%
    11:00 +15°C° 0 mm 2 mps 712 mmHg 69%
    12:00 +16°C° 0 mm 2 mps 712 mmHg 65%
    13:00 +18°C° 0 mm 1 mps 712 mmHg 62%
    14:00 +18°C° 0 mm 1 mps 712 mmHg 64%
    15:00 +18°C° 0 mm 1 mps 711 mmHg 67%
    16:00 +16°C° 0 mm 1 mps 711 mmHg 69%
    17:00 +15°C° 0 mm 1 mps 711 mmHg 74%
    18:00 +13°C° 0 mm 1 mps 711 mmHg 79%
    19:00 +12°C° 0 mm 1 mps 711 mmHg 84%
    20:00 +11°C° 0 mm 1 mps 711 mmHg 85%
    21:00 +11°C° 0 mm 1 mps 711 mmHg 86%
    22:00 +11°C° 0 mm 1 mps 711 mmHg 87%
    23:00 +10°C° 0 mm 1 mps 711 mmHg 87%

    Day after tomorrow, 19 October, Thursday

    Time Temperature Precipitation Wind Pressure Humidity
    00:00 +10°C° 0 mm 1 mps 711 mmHg 88%
    01:00 +10°C° 0 mm 1 mps 711 mmHg 89%
    02:00 +10°C° 0 mm 1 mps 711 mmHg 89%
    03:00 +9°C° 0 mm 1 mps 711 mmHg 90%
    04:00 +9°C° 0 mm 1 mps 711 mmHg 90%
    05:00 +9°C° 0 mm 1 mps 711 mmHg 90%
    06:00 +9°C° 0 mm 1 mps 711 mmHg 90%
    07:00 +9°C° 0 mm 1 mps 711 mmHg 90%
    08:00 +11°C° 0 mm 1 mps 711 mmHg 83%
    09:00 +13°C° 0 mm 1 mps 712 mmHg 75%
    10:00 +15°C° 0 mm 1 mps 712 mmHg 67%
    11:00 +16°C° 0 mm 1 mps 712 mmHg 63%
    12:00 +18°C° 0 mm 1 mps 712 mmHg 58%
    13:00 +19°C° 0 mm 1 mps 712 mmHg 54%
    14:00 +18°C° 0 mm 1 mps 712 mmHg 57%
    15:00 +18°C° 0 mm 1 mps 712 mmHg 60%
    16:00 +15°C° 0 mm 0 mps 711 mmHg 63%
    17:00 +14°C° 0 mm 0 mps 712 mmHg 68%
    18:00 +12°C° 0 mm 0 mps 712 mmHg 73%
    19:00 +11°C° 0 mm 0 mps 712 mmHg 78%
    20:00 +11°C° 0 mm 1 mps 712 mmHg 79%
    21:00 +11°C° 0 mm 1 mps 712 mmHg 80%
    22:00 +11°C° 0 mm 1 mps 712 mmHg 81%
    23:00 +10°C° 0 mm 1 mps 712 mmHg 81%

    20 October, Friday

    Time Temperature Precipitation Wind Pressure Humidity
    00:00 +10°C° 0 mm 1 mps 712 mmHg 81%
    01:00 +10°C° 0 mm 1 mps 712 mmHg 82%
    02:00 +10°C° 0 mm 1 mps 712 mmHg 82%
    03:00 +9°C° 0 mm 1 mps 712 mmHg 82%
    04:00 +9°C° 0 mm 1 mps 712 mmHg 82%
    05:00 +9°C° 0 mm 1 mps 712 mmHg 82%
    06:00 +9°C° 0 mm 1 mps 712 mmHg 81%
    07:00 +9°C° 0 mm 1 mps 713 mmHg 81%
    08:00 +11°C° 0 mm 1 mps 713 mmHg 74%
    09:00 +13°C° 0 mm 1 mps 713 mmHg 67%
    10:00 +15°C° 0 mm 1 mps 714 mmHg 60%
    11:00 +16°C° 0 mm 1 mps 714 mmHg 57%
    12:00 +18°C° 0 mm 1 mps 714 mmHg 54%
    13:00 +19°C° 0 mm 2 mps 714 mmHg 50%
    14:00 +19°C° 0 mm 1 mps 714 mmHg 54%
    15:00 +18°C° 0 mm 1 mps 713 mmHg 58%
    16:00 +18°C° 0 mm 1 mps 713 mmHg 63%
    17:00 +15°C° 0 mm 1 mps 713 mmHg 68%
    18:00 +14°C° 0 mm 1 mps 713 mmHg 73%
    19:00 +12°C° 0 mm 2 mps 713 mmHg 78%
    20:00 +12°C° 0 mm 2 mps 714 mmHg 80%
    21:00 +10°C° 0 mm 2 mps 714 mmHg 81%
    22:00 +10°C° 0 mm 2 mps 714 mmHg 83%
    23:00 +10°C° 0 mm 2 mps 714 mmHg 84%

    21 October, Saturday

    Time Temperature Precipitation Wind Pressure Humidity
    00:00 +10°C° 0 mm 1 mps 714 mmHg 84%
    01:00 +10°C° 0 mm 1 mps 713 mmHg 85%
    02:00 +10°C° 0 mm 1 mps 713 mmHg 84%
    03:00 +10°C° 0 mm 1 mps 713 mmHg 84%
    04:00 +9°C° 0 mm 1 mps 713 mmHg 84%
    05:00 +9°C° 0 mm 1 mps 713 mmHg 83%
    06:00 +9°C° 0 mm 1 mps 713 mmHg 82%
    07:00 +9°C° 0 mm 1 mps 713 mmHg 81%
    08:00 +11°C° 0 mm 1 mps 713 mmHg 74%
    09:00 +13°C° 0 mm 1 mps 713 mmHg 67%
    10:00 +15°C° 0 mm 1 mps 714 mmHg 60%
    11:00 +17°C° 0 mm 2 mps 713 mmHg 56%
    12:00 +18°C° 0 mm 2 mps 713 mmHg 52%
    13:00 +19°C° 0 mm 2 mps 713 mmHg 49%
    14:00 +18°C° 0 mm 2 mps 713 mmHg 52%
    15:00 +18°C° 0 mm 2 mps 712 mmHg 56%
    16:00 +18°C° 0 mm 1 mps 712 mmHg 60%
    17:00 +16°C° 0 mm 1 mps 712 mmHg 64%
    18:00 +15°C° 0 mm 1 mps 712 mmHg 67%
    19:00 +13°C° 0 mm 2 mps 712 mmHg 71%
    20:00 +13°C° 0 mm 2 mps 713 mmHg 72%
    21:00 +13°C° 0 mm 2 mps 713 mmHg 73%
    22:00 +13°C° 0 mm 2 mps 713 mmHg 74%
    23:00 +13°C° 0.1 mm 2 mps 713 mmHg 78%

    22 October, Sunday

    Time Temperature Precipitation Wind Pressure Humidity
    00:00 +13°C° 0.1 mm 2 mps 713 mmHg 82%
    01:00 +12°C° 0.1 mm 2 mps 713 mmHg 86%
    02:00 +12°C° 0.1 mm 2 mps 713 mmHg 88%
    03:00 +11°C° 0.1 mm 3 mps 713 mmHg 90%
    04:00 +11°C° 0.1 mm 3 mps 713 mmHg 93%
    05:00 +11°C° 0.1 mm 3 mps 713 mmHg 92%
    06:00 +10°C° 0.1 mm 3 mps 713 mmHg 91%
    07:00 +10°C° 0.1 mm 3 mps 713 mmHg 90%
    08:00 +10°C° 0.5 mm 3 mps 713 mmHg 90%
    09:00 +10°C° 0.5 mm 4 mps 713 mmHg 89%
    10:00 +10°C° 0.5 mm 4 mps 713 mmHg 89%
    11:00 +8°C° 1.2 mm 4 mps 713 mmHg 89%
    12:00 +8°C° 1.2 mm 4 mps 713 mmHg 90%
    13:00 +8°C° 1.2 mm 4 mps 713 mmHg 90%
    14:00 +8°C° 0.8 mm 4 mps 713 mmHg 89%
    15:00 +7°C° 0.8 mm 4 mps 713 mmHg 89%
    16:00 +7°C° 0.8 mm 4 mps 713 mmHg 89%
    17:00 +7°C° 0.3 mm 4 mps 713 mmHg 88%
    18:00 +7°C° 0.3 mm 4 mps 714 mmHg 87%
    19:00 +7°C° 0.3 mm 4 mps 714 mmHg 86%
    20:00 +6°C° 0 mm 4 mps 714 mmHg 86%
    21:00 +6°C° 0 mm 4 mps 715 mmHg 86%
    22:00 +6°C° 0 mm 4 mps 715 mmHg 86%
    23:00 +5°C° 0 mm 4 mps 715 mmHg 86%
    Show more